SJX236 VHHH-RCTP

Flight info

Callsign SJX236
Flight time 1h 12m
Altitude 31000
Route DALOL V631 ENVAR M750 TONGA TONGA1A
Aircraft A359/H-SDE2E3GHIJ3J4J5LM1ORWXY/LB1D1

Departure

Time 2026-05-04 16:44
Airport Hong Kong International Airport (VHHH)

Arrival

Time 2026-05-04 17:57
Airport Taiwan Taoyuan International Airport (RCTP)
Time Latitude Longitude Altitude Speed Heading
2026-05-04 16:14 22.31436 113.92284 38 ft 0 kts 43°
2026-05-04 16:30 22.31431 113.92279 38 ft 3 kts 43°
2026-05-04 16:31 22.31398 113.92246 34 ft 2 kts 43°
2026-05-04 16:31 22.31357 113.92254 38 ft 3 kts 296°
2026-05-04 16:32 22.31346 113.92277 36 ft 0 kts 296°
2026-05-04 16:35 22.31361 113.92246 38 ft 7 kts 296°
2026-05-04 16:35 22.31287 113.92147 38 ft 11 kts 161°
2026-05-04 16:36 22.31208 113.92176 38 ft 13 kts 161°
2026-05-04 16:36 22.31005 113.92251 38 ft 17 kts 161°
2026-05-04 16:37 22.30760 113.92343 38 ft 14 kts 160°
2026-05-04 16:37 22.30716 113.92329 38 ft 7 kts 236°
2026-05-04 16:37 22.30670 113.92195 38 ft 13 kts 251°
2026-05-04 16:38 22.30600 113.91975 38 ft 18 kts 251°
2026-05-04 16:39 22.30458 113.91538 38 ft 23 kts 251°
2026-05-04 16:39 22.30344 113.91185 38 ft 24 kts 251°
2026-05-04 16:40 22.30227 113.90820 38 ft 28 kts 251°
2026-05-04 16:40 22.30129 113.90516 38 ft 18 kts 251°
2026-05-04 16:41 22.30035 113.90225 38 ft 23 kts 251°
2026-05-04 16:41 22.29872 113.89748 38 ft 8 kts 224°
2026-05-04 16:42 22.29752 113.89761 38 ft 0 kts 161°
2026-05-04 16:43 22.29740 113.89766 38 ft 5 kts 161°
2026-05-04 16:43 22.29646 113.89888 36 ft 16 kts 78°
2026-05-04 16:43 22.29686 113.90010 36 ft 18 kts 71°
2026-05-04 16:44 22.30717 113.93181 1186 ft 156 kts 75°
2026-05-04 16:45 22.31389 113.95404 2753 ft 159 kts 74°
2026-05-04 16:46 22.32689 113.99391 3818 ft 226 kts 72°
2026-05-04 16:46 22.33710 114.02802 5012 ft 247 kts 80°
2026-05-04 16:47 22.33122 114.06402 6540 ft 250 kts 124°
2026-05-04 16:47 22.30394 114.08552 8145 ft 246 kts 170°
2026-05-04 16:48 22.25298 114.08722 10651 ft 250 kts 181°
2026-05-04 16:48 22.23519 114.08712 11198 ft 265 kts 185°
2026-05-04 16:49 22.19514 114.08653 11848 ft 312 kts 184°
2026-05-04 16:49 22.15260 114.10519 12498 ft 366 kts 137°
2026-05-04 16:50 22.12665 114.15398 13798 ft 384 kts 118°
2026-05-04 16:50 22.10303 114.20641 14994 ft 393 kts 119°
2026-05-04 16:51 22.07662 114.25798 16167 ft 397 kts 132°
2026-05-04 16:51 22.05680 114.27832 16772 ft 393 kts 146°
2026-05-04 16:51 22.01234 114.31343 17961 ft 400 kts 148°
2026-05-04 16:52 21.96694 114.34898 19027 ft 407 kts 148°
2026-05-04 16:52 21.94398 114.36707 19542 ft 411 kts 148°
2026-05-04 16:53 21.89739 114.40368 20604 ft 418 kts 148°
2026-05-04 16:53 21.84010 114.47611 22098 ft 447 kts 115°
2026-05-04 16:54 21.83036 114.50813 22608 ft 454 kts 108°
2026-05-04 16:55 21.79649 114.64154 24416 ft 470 kts 108°
2026-05-04 16:55 21.77891 114.70971 25318 ft 477 kts 108°
2026-05-04 16:56 21.76106 114.77852 26214 ft 485 kts 108°
2026-05-04 16:56 21.74277 114.88679 27538 ft 501 kts 93°
2026-05-04 16:57 21.74213 114.92442 27973 ft 505 kts 91°
2026-05-04 16:57 21.74269 115.00011 28838 ft 514 kts 90°
2026-05-04 16:58 21.74352 115.11690 30037 ft 526 kts 91°
2026-05-04 16:58 21.74355 115.15648 30375 ft 530 kts 91°
2026-05-04 16:59 21.74346 115.23626 30970 ft 536 kts 91°
2026-05-04 17:00 21.74312 115.38949 31027 ft 506 kts 91°
2026-05-04 17:01 21.74247 115.57862 31022 ft 506 kts 91°
2026-05-04 17:02 21.74188 115.72921 31026 ft 504 kts 92°
2026-05-04 17:03 21.74138 115.84238 31029 ft 504 kts 92°
2026-05-04 17:03 21.74079 115.95502 31027 ft 504 kts 92°
2026-05-04 17:04 21.73988 116.10520 31030 ft 501 kts 92°
2026-05-04 17:05 21.73883 116.25459 31029 ft 501 kts 92°
2026-05-04 17:06 21.73797 116.36688 31030 ft 500 kts 92°
2026-05-04 17:07 21.73713 116.46650 31037 ft 500 kts 92°
2026-05-04 17:07 21.73635 116.55344 31032 ft 500 kts 92°
2026-05-04 17:08 21.73528 116.66568 31031 ft 500 kts 92°
2026-05-04 17:09 21.73454 116.74052 31032 ft 500 kts 92°
2026-05-04 17:09 21.73702 116.77790 31032 ft 502 kts 81°
2026-05-04 17:09 21.74555 116.81428 31041 ft 502 kts 71°
2026-05-04 17:10 21.80801 116.98989 31030 ft 505 kts 68°
2026-05-04 17:11 21.83373 117.06014 31031 ft 504 kts 68°
2026-05-04 17:12 21.87167 117.16523 31029 ft 504 kts 68°
2026-05-04 17:13 21.93491 117.34126 31052 ft 504 kts 68°
2026-05-04 17:14 21.98553 117.48203 31023 ft 506 kts 66°
2026-05-04 17:15 22.03714 117.58079 31034 ft 504 kts 57°
2026-05-04 17:16 22.11057 117.70936 31036 ft 504 kts 56°
2026-05-04 17:17 22.18350 117.83798 31032 ft 506 kts 57°
2026-05-04 17:18 22.25677 117.96778 31033 ft 506 kts 57°
2026-05-04 17:19 22.33075 118.09648 31029 ft 506 kts 55°
2026-05-04 17:20 22.40606 118.22500 31033 ft 508 kts 56°
2026-05-04 17:20 22.46139 118.32234 31032 ft 509 kts 57°
2026-05-04 17:21 22.53501 118.45301 31025 ft 508 kts 56°
2026-05-04 17:22 22.57181 118.51822 31023 ft 508 kts 56°
2026-05-04 17:23 22.64564 118.64779 31037 ft 508 kts 56°
2026-05-04 17:24 22.70113 118.74535 31021 ft 507 kts 56°
2026-05-04 17:25 22.77467 118.87498 31017 ft 507 kts 56°
2026-05-04 17:26 22.84855 119.00552 31024 ft 509 kts 56°
2026-05-04 17:27 22.94056 119.16860 31020 ft 508 kts 56°
2026-05-04 17:28 23.01421 119.29950 31028 ft 508 kts 56°
2026-05-04 17:29 23.12455 119.49626 31015 ft 510 kts 56°
2026-05-04 17:30 23.18483 119.59051 31020 ft 501 kts 38°
2026-05-04 17:31 23.24143 119.63176 31020 ft 491 kts 24°
2026-05-04 17:32 23.38989 119.72475 30858 ft 496 kts 24°
2026-05-04 17:33 23.48388 119.78391 29627 ft 533 kts 25°
2026-05-04 17:33 23.51547 119.80495 29210 ft 531 kts 28°
2026-05-04 17:34 23.60769 119.86924 27903 ft 517 kts 28°
2026-05-04 17:34 23.63764 119.89002 27475 ft 501 kts 28°
2026-05-04 17:35 23.72046 119.94736 26317 ft 452 kts 27°
2026-05-04 17:35 23.77330 119.98379 25527 ft 446 kts 27°
2026-05-04 17:35 23.79945 120.00184 25138 ft 443 kts 28°
2026-05-04 17:36 23.82545 120.01981 24753 ft 440 kts 28°
2026-05-04 17:36 23.85123 120.03764 24375 ft 437 kts 28°
2026-05-04 17:36 23.87685 120.05536 24006 ft 434 kts 28°
2026-05-04 17:36 23.90226 120.07296 23623 ft 431 kts 28°
2026-05-04 17:37 23.92751 120.09045 23198 ft 428 kts 28°
2026-05-04 17:37 23.95248 120.10777 22787 ft 421 kts 27°
2026-05-04 17:37 23.97651 120.12447 22388 ft 410 kts 27°
2026-05-04 17:37 24.00045 120.14109 21994 ft 405 kts 27°
2026-05-04 17:38 24.02411 120.15749 21600 ft 401 kts 27°
2026-05-04 17:38 24.04762 120.17380 21217 ft 398 kts 27°
2026-05-04 17:38 24.07096 120.19001 21043 ft 398 kts 27°
2026-05-04 17:38 24.09098 120.20390 21027 ft 396 kts 27°
2026-05-04 17:39 24.13712 120.23609 21025 ft 394 kts 27°
2026-05-04 17:39 24.15996 120.25195 21023 ft 394 kts 27°
2026-05-04 17:39 24.18310 120.26802 21025 ft 394 kts 27°
2026-05-04 17:40 24.20626 120.28413 21023 ft 395 kts 27°
2026-05-04 17:40 24.22946 120.30027 21020 ft 396 kts 27°
2026-05-04 17:40 24.25268 120.31645 21021 ft 396 kts 27°
2026-05-04 17:40 24.27589 120.33263 20965 ft 396 kts 27°
2026-05-04 17:41 24.29912 120.34884 20599 ft 395 kts 27°
2026-05-04 17:41 24.32230 120.36486 20155 ft 393 kts 26°
2026-05-04 17:41 24.34541 120.38070 19706 ft 391 kts 26°
2026-05-04 17:41 24.36813 120.39621 19194 ft 390 kts 24°
2026-05-04 17:42 24.39124 120.41158 18703 ft 387 kts 22°
2026-05-04 17:42 24.41431 120.42650 18192 ft 382 kts 18°
2026-05-04 17:42 24.43728 120.44087 17631 ft 378 kts 18°
2026-05-04 17:42 24.45980 120.45545 17077 ft 374 kts 21°
2026-05-04 17:43 24.48180 120.47050 16539 ft 371 kts 22°
2026-05-04 17:43 24.50350 120.48556 16011 ft 368 kts 22°
2026-05-04 17:43 24.52511 120.50022 15462 ft 362 kts 18°
2026-05-04 17:43 24.54650 120.51438 14959 ft 356 kts 18°
2026-05-04 17:44 24.56709 120.52864 14461 ft 355 kts 32°
2026-05-04 17:44 24.58687 120.54503 13967 ft 357 kts 33°
2026-05-04 17:44 24.60686 120.56125 13401 ft 356 kts 32°
2026-05-04 17:44 24.62681 120.57660 12850 ft 344 kts 31°
2026-05-04 17:45 24.64637 120.59110 12310 ft 335 kts 30°
2026-05-04 17:45 24.66552 120.60501 11789 ft 325 kts 30°
2026-05-04 17:45 24.68318 120.62004 11263 ft 317 kts 38°
2026-05-04 17:45 24.69927 120.63574 10756 ft 309 kts 40°
2026-05-04 17:46 24.71503 120.65137 10245 ft 302 kts 40°
2026-05-04 17:46 24.73045 120.66663 9724 ft 295 kts 40°
2026-05-04 17:46 24.74560 120.68159 9173 ft 290 kts 40°
2026-05-04 17:46 24.76047 120.69623 8620 ft 285 kts 40°
2026-05-04 17:47 24.77512 120.71066 8090 ft 280 kts 40°
2026-05-04 17:47 24.78953 120.72486 7803 ft 278 kts 40°
2026-05-04 17:47 24.80388 120.73898 7557 ft 275 kts 40°
2026-05-04 17:47 24.81813 120.75300 7284 ft 273 kts 40°
2026-05-04 17:48 24.82745 120.76218 7102 ft 271 kts 40°
2026-05-04 17:48 24.84144 120.77597 6824 ft 269 kts 40°
2026-05-04 17:48 24.85551 120.78982 6561 ft 272 kts 41°
2026-05-04 17:48 24.87401 120.80805 6229 ft 268 kts 41°
2026-05-04 17:49 24.88773 120.82159 5960 ft 263 kts 41°
2026-05-04 17:49 24.90134 120.83503 5676 ft 262 kts 41°
2026-05-04 17:49 24.90970 120.84457 5499 ft 261 kts 52°
2026-05-04 17:49 24.91818 120.86880 5315 ft 253 kts 89°
2026-05-04 17:50 24.91829 120.88155 5247 ft 250 kts 94°
2026-05-04 17:50 24.91709 120.90549 5097 ft 249 kts 95°
2026-05-04 17:50 24.91606 120.92425 4981 ft 240 kts 96°
2026-05-04 17:50 24.91512 120.94222 4843 ft 231 kts 95°
2026-05-04 17:51 24.91423 120.95971 4606 ft 227 kts 95°
2026-05-04 17:51 24.91341 120.97683 4397 ft 227 kts 96°
2026-05-04 17:51 24.91258 120.99420 4171 ft 227 kts 96°
2026-05-04 17:51 24.91416 121.01142 4016 ft 229 kts 72°
2026-05-04 17:52 24.92259 121.02624 4004 ft 230 kts 50°
2026-05-04 17:52 24.93311 121.03939 4013 ft 228 kts 46°
2026-05-04 17:52 24.94387 121.05230 3905 ft 227 kts 49°
2026-05-04 17:52 24.95398 121.06539 3657 ft 222 kts 50°
2026-05-04 17:53 24.96407 121.07827 3337 ft 221 kts 49°
2026-05-04 17:53 24.97418 121.09101 3010 ft 221 kts 49°
2026-05-04 17:53 24.98408 121.10355 2719 ft 218 kts 48°
2026-05-04 17:53 24.99384 121.11595 2440 ft 208 kts 47°
2026-05-04 17:54 25.00299 121.12751 2185 ft 194 kts 49°
2026-05-04 17:54 25.01157 121.13839 1934 ft 182 kts 49°
2026-05-04 17:54 25.01954 121.14849 1700 ft 166 kts 50°
2026-05-04 17:54 25.02672 121.15761 1490 ft 149 kts 50°
2026-05-04 17:55 25.03326 121.16589 1302 ft 139 kts 50°
2026-05-04 17:55 25.03951 121.17380 1127 ft 135 kts 50°
2026-05-04 17:55 25.04568 121.18160 948 ft 134 kts 50°
2026-05-04 17:55 25.05168 121.18918 797 ft 132 kts 51°
2026-05-04 17:56 25.05769 121.19690 603 ft 130 kts 50°
2026-05-04 17:56 25.06362 121.20433 449 ft 128 kts 50°
2026-05-04 17:56 25.06947 121.21149 256 ft 123 kts 51°
2026-05-04 17:56 25.07495 121.21847 140 ft 119 kts 57°
2026-05-04 17:57 25.07987 121.22488 105 ft 86 kts 49°
2026-05-04 17:57 25.08250 121.22815 105 ft 36 kts 49°
2026-05-04 17:57 25.08395 121.23019 104 ft 29 kts 60°
2026-05-04 17:57 25.08437 121.23155 104 ft 15 kts 79°
2026-05-04 17:58 25.08456 121.23264 106 ft 14 kts 79°
2026-05-04 17:58 25.08475 121.23371 107 ft 15 kts 80°
2026-05-04 17:58 25.08463 121.23472 106 ft 11 kts 126°
2026-05-04 17:58 25.08413 121.23499 106 ft 8 kts 188°
2026-05-04 17:59 25.08369 121.23460 106 ft 10 kts 227°
2026-05-04 17:59 25.08320 121.23399 106 ft 8 kts 223°
2026-05-04 17:59 25.08233 121.23447 105 ft 9 kts 139°
2026-05-04 18:00 25.08213 121.23467 107 ft 1 kts 139°
2026-05-04 18:00 25.08207 121.23473 106 ft 1 kts 139°
2026-05-04 18:00 25.08206 121.23474 106 ft 0 kts 139°
2026-05-04 18:00 25.08205 121.23474 106 ft 0 kts 139°